Tracking 27405 objects as of 1-Jun-2023
HD Live streaming from Space Station
objects crossing your sky now

COSMOS 1341

Track COSMOS 1341 now!
COSMOS 1341 is classified as:


NORAD ID: 13080
Int'l Code: 1982-016A
Perigee: 3,793.4 km
Apogee: 36,550.3 km
Inclination: 69.1 °
Period: 717.3 minutes
Semi major axis: 26542 km
RCS: 8.091 m2 (large)
Launch date: March 3, 1982
Source: Commonwealth of Independent States (former USSR) (CIS)
Launch site: PLESETSK MISSILE AND SPACE COMPLEX (PKMTR)
Your satellite tracking list
Your tracking list is empty




NASA's NSSDC Master Catalog

Two Line Element Set (TLE):
1 13080U 82016A   23151.65279557 -.00000714  00000-0  00000-0 0  9990
2 13080  69.1001  64.0421 6170582 346.5293   2.5677  2.00762314212422
Source of the keplerian elements: AFSPC